[[{"header":{"parameterUnit":"m.s-1","parameterCategory":2,"la1":30.2991,"la2":30.254,"lo1":-89.0895,"lo2":-89.0444,"dy":0.0017,"dx":0.0017,"nx":28,"ny":28,"refTime":"2024-05-24T03:00:00:Z","depth":"0","parameterNumber":2,"parameterNumberName":"U-component_of_CURRENTS"},"data":[0,0,0,0,0,0,0,0,0,0,0,0,0,0,0,0,0,0,0,0,0,0,0,0,0,0,0,0,0,0,0,0,0,0,0,0,0,0,0,0,0,0,0,0,0,0,0,0,0,0,0,0,0,0,0,0,0,0,0.2815,0.2815,0,0.2816,0.2816,0.2816,0.2798,0.2798,0.2798,0.2797,0.2779,0.2779,0.2779,0,0,0,0,0,0,0,0,0,0,0,0,0,0.2817,0.2817,0.2815,0.2815,0.2815,0.2816,0.2816,0.2816,0.2799,0.2798,0.2798,0.2797,0.2779,0.2779,0.2779,0,0,0,0,0,0,0,0,0,0,0,0,0,0.2815,0.2817,0.2815,0.2808,0.2807,0.2816,0.2816,0.2816,0.2799,0.2798,0.2798,0.2797,0.2779,0.2779,0.2779,0.2788,0,0,0.2778,0.2778,0,0,0,0,0,0,0,0,0.2816,0.2815,0.2808,0.2808,0.2807,0.2808,0.281,0.2806,0.2799,0.28,0.2797,0.2797,0.2788,0.2787,0.2787,0.2787,0.2786,0.2778,0.2778,0.2778,0.2778,0,0,0,0,0,0,0,0.2816,0.2815,0.2814,0.2809,0.2808,0.2811,0.281,0.2809,0.2796,0.28,0.2799,0.2802,0.2787,0.2787,0.2786,0.2786,0.2778,0.2778,0.2778,0.2777,0.2827,0.2829,0,0,0,0,0,0,0.2818,0.2815,0.2814,0.2814,0.2812,0.2811,0.281,0.2807,0.2796,0.2795,0.2802,0.2801,0.2788,0.2787,0.2786,0.2823,0.2778,0.2777,0.2777,0.2826,0.2828,0.2829,0,0,0,0,0,0,0.2818,0.2817,0.2814,0.2816,0.2816,0.2812,0.2809,0.2807,0.2812,0.2798,0.2796,0.2808,0.2787,0.2786,0.2797,0.2821,0.2777,0.2777,0.2824,0.2826,0.2828,0.288,0,0,0,0,0,0,0.2818,0.2817,0.2819,0.2816,0.2816,0.2826,0.2809,0.2808,0.2814,0.2813,0.2803,0.28,0.2787,0.2798,0.2797,0.282,0.2777,0.2822,0.2825,0.2828,0.2876,0.2883,0.289,0,0,0,0,0,0.2818,0.2819,0.2819,0.2819,0.2817,0.2827,0.2828,0.2822,0.2815,0.2823,0.2819,0.2801,0.2815,0.2799,0.2797,0.2821,0.2821,0.2824,0.2827,0.2873,0.2882,0.2889,0,0,0,0,0,0,0.2819,0.2818,0.2817,0.2818,0.2827,0.2825,0.2829,0.2829,0.2832,0.283,0.2815,0.2813,0.2835,0.2823,0.2806,0.2845,0.2817,0.282,0.2852,0.286,0.2867,0.2879,0.2777,0,0,0,0,0,0.2822,0.2822,0.2827,0.2828,0.2833,0.2834,0.2838,0.2839,0.284,0.2841,0.2832,0.2833,0.2848,0.2849,0.2853,0.2871,0.2877,0.2887,0.2894,0.29,0.2911,0.2953,0.2964,0.284,0.284,0.284,0,0,0.282,0.2822,0.282,0.2829,0.2832,0.2847,0.2835,0.2845,0.2862,0.2839,0.2852,0.2855,0.2859,0.2882,0.289,0.2873,0.2937,0.2904,0.2909,0.2917,0.2957,0.2969,0.298,0.2842,0.2842,0.2841,0,0,0.2818,0.2822,0.2822,0.2836,0.285,0.2858,0.2865,0.2869,0.2876,0.2895,0.289,0.2912,0.2914,0.2931,0.294,0.2988,0.2974,0.2985,0.3026,0.3066,0.3077,0.3086,0.3102,0.3112,0.2986,0.2986,0.2986,0,0.2818,0.282,0.2826,0.2839,0.2853,0.2865,0.288,0.2896,0.2905,0.292,0.2906,0.2945,0.2945,0.2993,0.3012,0.3004,0.3014,0.2992,0.3075,0.3084,0.3093,0.3107,0.3118,0.2989,0.2988,0.2988,0.2988,0,0.2821,0.2828,0.2833,0.2854,0.2874,0.2889,0.2916,0.2938,0.2948,0.2963,0.3007,0.3015,0.3039,0.3048,0.3045,0.311,0.3092,0.308,0.3053,0.3109,0.312,0.313,0.2993,0.2992,0.2991,0.299,0,0,0.2798,0.2827,0.2829,0.2837,0.2884,0.2892,0.2942,0.2983,0.3013,0.3035,0.3078,0.3115,0.3121,0.3133,0.3135,0.3173,0.3241,0.3155,0.3156,0.3168,0.3317,0.3251,0.3256,0.3243,0.3245,0.3247,0.3297,0,0.2796,0.2813,0.2838,0.2861,0.2873,0.2917,0.2958,0.3004,0.3043,0.3089,0.3129,0.3165,0.3154,0.317,0.321,0.324,0.3272,0.3228,0.3263,0.3264,0.3198,0.3268,0.315,0.3181,0.3307,0.3309,0.331,0,0.2786,0.2801,0.2819,0.2859,0.2869,0.2893,0.2962,0.3004,0.3091,0.3122,0.3182,0.3211,0.3284,0.3258,0.3342,0.3313,0.3323,0.3337,0.3339,0.3269,0.3219,0.3148,0.3194,0.3153,0.3325,0.3324,0.3323,0,0.2748,0.2784,0.2793,0.2809,0.2863,0.2886,0.2926,0.301,0.3057,0.3152,0.3202,0.3274,0.3322,0.3363,0.34,0.3378,0.3482,0.3449,0.3396,0.339,0.3293,0.3275,0.3302,0.3506,0.3505,0.3505,0.3505,0,0.273,0.2734,0.2772,0.2776,0.2801,0.2855,0.2907,0.296,0.3058,0.3119,0.3212,0.3274,0.3355,0.3422,0.3434,0.3455,0.3509,0.3422,0.3411,0.3305,0.3288,0.3249,0.3222,0.3507,0.3507,0.3506,0.3506,0,0.2681,0.2706,0.2715,0.2763,0.2778,0.2797,0.2888,0.2926,0.3032,0.3123,0.3159,0.3295,0.3382,0.3448,0.352,0.3492,0.3418,0.3502,0.3362,0.3334,0.3214,0.3193,0.3014,0.2938,0.3447,0.3446,0.3445,0,0.2654,0.2652,0.2689,0.2694,0.2712,0.2759,0.279,0.2894,0.2946,0.3125,0.3157,0.3294,0.3363,0.3457,0.3457,0.3473,0.3375,0.3342,0.3276,0.321,0.3181,0.3003,0.294,0.3167,0.3164,0.3161,0.3159,0,0.2607,0.2617,0.2627,0.2639,0.2656,0.2689,0.2746,0.2784,0.2915,0.2996,0.3106,0.3186,0.3314,0.3299,0.3336,0.3318,0.3178,0.3286,0.3268,0.3011,0.277,0.269,0.3121,0.3136,0.3138,0.314,0.3141,0.3142,0.2568,0.256,0.257,0.2569,0.2588,0.2596,0.2592,0.2665,0.2726,0.282,0.2973,0.3045,0.3148,0.3194,0.3163,0.3068,0.3018,0.2965,0.2961,0.2796,0.2671,0.304,0.3009,0.3011,0.3012,0.3013,0.3014,0,0.2505,0.2499,0.2498,0.2484,0.2456,0.2502,0.2533,0.2509,0.252,0.266,0.2741,0.2851,0.285,0.291,0.2887,0.278,0.2623,0.2697,0.2458,0.2429,0.2822,0.2763,0.2617,0.2617,0.2617,0.2617,0.2617,0.2618,0.2474,0.2439,0.2427,0.2349,0.2333,0.2269,0.2257,0.224,0.2301,0.235,0.2417,0.2527,0.2691,0.2733,0.2642,0.2573,0.2397,0.2225,0.2251,0.2598,0.2623,0.2647,0.2588,0.2408,0.2408,0.1735,0.173,0.1727]},{"header":{"parameterUnit":"m.s-1","parameterCategory":2,"la1":30.2991,"la2":30.254,"lo1":-89.0895,"lo2":-89.0444,"dy":0.0017,"dx":0.0017,"nx":28,"ny":28,"refTime":"2024-05-24T03:00:00:Z","depth":"0","parameterNumber":3,"parameterNumberName":"V-component_of_CURRENTS"},"data":[0,0,0,0,0,0,0,0,0,0,0,0,0,0,0,0,0,0,0,0,0,0,0,0,0,0,0,0,0,0,0,0,0,0,0,0,0,0,0,0,0,0,0,0,0,0,0,0,0,0,0,0,0,0,0,0,0,0,0.041,0.0409,0,0.0381,0.0381,0.0381,0.0358,0.0358,0.0358,0.0357,0.0311,0.031,0.0309,0,0,0,0,0,0,0,0,0,0,0,0,0,0.0395,0.0396,0.041,0.0409,0.0409,0.0381,0.0381,0.0381,0.0358,0.0358,0.0358,0.0357,0.0311,0.031,0.0309,0,0,0,0,0,0,0,0,0,0,0,0,0,0.0387,0.0396,0.041,0.0395,0.0393,0.0381,0.0381,0.038,0.0358,0.0358,0.0358,0.0357,0.0312,0.031,0.0308,0.0304,0,0,0.0304,0.0303,0,0,0,0,0,0,0,0,0.0388,0.0388,0.0397,0.0396,0.0394,0.0373,0.0359,0.0354,0.0358,0.0371,0.0357,0.0357,0.033,0.0327,0.0322,0.0302,0.03,0.0303,0.0302,0.0302,0.0301,0,0,0,0,0,0,0,0.0389,0.0389,0.0398,0.0397,0.0395,0.0373,0.0372,0.0358,0.0352,0.037,0.0368,0.0366,0.0329,0.0324,0.0321,0.03,0.0303,0.0302,0.0301,0.03,0.0275,0.0276,0,0,0,0,0,0,0.0396,0.039,0.0399,0.0397,0.0391,0.0373,0.0372,0.038,0.0353,0.0348,0.0366,0.0365,0.0327,0.0323,0.0319,0.0328,0.0302,0.03,0.0299,0.0275,0.0276,0.0276,0,0,0,0,0,0,0.0396,0.0397,0.04,0.0392,0.0391,0.0374,0.0383,0.0379,0.0377,0.035,0.0345,0.0368,0.0326,0.0321,0.0313,0.0326,0.03,0.0298,0.0275,0.0275,0.0276,0.0336,0,0,0,0,0,0,0.0396,0.0398,0.0403,0.0393,0.0392,0.0403,0.0383,0.0379,0.0376,0.0374,0.035,0.0345,0.0326,0.0315,0.0311,0.0323,0.0297,0.0274,0.0275,0.0276,0.0334,0.0339,0.0343,0,0,0,0,0,0.0396,0.041,0.0404,0.0405,0.0401,0.0404,0.0401,0.0387,0.0376,0.0382,0.0363,0.0346,0.0316,0.0315,0.031,0.0321,0.0274,0.0275,0.0276,0.0332,0.0338,0.0343,0,0,0,0,0,0,0.0406,0.0409,0.0402,0.0416,0.0413,0.04,0.0401,0.0392,0.0382,0.0379,0.0351,0.0345,0.0342,0.0322,0.0321,0.0314,0.0291,0.0291,0.0336,0.0341,0.0346,0.0365,0.0296,0,0,0,0,0,0.0411,0.0423,0.0419,0.0429,0.0429,0.0415,0.0413,0.0407,0.0397,0.0392,0.0373,0.0353,0.034,0.0333,0.0317,0.0316,0.029,0.0318,0.0323,0.0327,0.0339,0.0315,0.0319,0.0278,0.0278,0.0278,0,0,0.0416,0.042,0.0425,0.0432,0.0425,0.0438,0.0413,0.0418,0.0431,0.0388,0.0394,0.0368,0.0342,0.0341,0.0337,0.0327,0.0321,0.0328,0.0331,0.0341,0.0316,0.032,0.0324,0.0278,0.0278,0.0278,0,0,0.0438,0.0437,0.0455,0.0459,0.046,0.0454,0.0459,0.0451,0.045,0.0453,0.0424,0.0408,0.0389,0.0373,0.0363,0.0382,0.0346,0.0373,0.0415,0.0392,0.0395,0.0398,0.0359,0.0357,0.0377,0.0377,0.0377,0,0.0441,0.0471,0.0459,0.048,0.049,0.0467,0.0492,0.0489,0.0479,0.0484,0.0464,0.0435,0.0407,0.041,0.0413,0.0394,0.0369,0.0399,0.0399,0.0401,0.0403,0.0362,0.036,0.038,0.038,0.0379,0.0379,0,0.0481,0.0503,0.0514,0.0535,0.0542,0.0561,0.0558,0.0563,0.0554,0.0547,0.0545,0.0505,0.0488,0.0473,0.0449,0.045,0.0423,0.0407,0.0389,0.0411,0.0366,0.0362,0.0384,0.0383,0.0382,0.0381,0,0,0.0498,0.0537,0.0541,0.0568,0.0579,0.0593,0.0614,0.0632,0.0654,0.0627,0.0651,0.061,0.058,0.0566,0.0527,0.0505,0.0483,0.0466,0.0463,0.0434,0.0421,0.0419,0.0415,0.0469,0.0469,0.0469,0.038,0,0.0534,0.0593,0.0599,0.0653,0.0685,0.0679,0.0708,0.0716,0.0711,0.0723,0.0681,0.0681,0.0618,0.0612,0.0578,0.0517,0.0479,0.0508,0.0398,0.0395,0.0397,0.0413,0.0465,0.0392,0.0376,0.0376,0.0375,0,0.0577,0.0614,0.0676,0.0734,0.0747,0.077,0.0813,0.0838,0.0841,0.084,0.0818,0.0779,0.0743,0.0688,0.0583,0.0605,0.0517,0.0459,0.0454,0.0433,0.0389,0.0369,0.0386,0.0307,0.037,0.037,0.037,0,0.0609,0.0671,0.0727,0.0745,0.0798,0.0826,0.0853,0.0871,0.0912,0.0911,0.0934,0.0868,0.0853,0.0743,0.0612,0.0598,0.0497,0.0459,0.0367,0.0365,0.0379,0.0378,0.0317,0.0379,0.0379,0.0379,0.038,0,0.0655,0.07,0.0748,0.0781,0.086,0.0873,0.0949,0.0966,0.1003,0.1066,0.0994,0.1022,0.0869,0.0791,0.0648,0.0508,0.0517,0.0382,0.0351,0.0399,0.0402,0.0309,0.0258,0.0376,0.0377,0.0377,0.0378,0,0.0683,0.0714,0.0786,0.0851,0.088,0.0935,0.1025,0.1079,0.1102,0.1181,0.119,0.1143,0.1047,0.0879,0.0707,0.0571,0.039,0.0367,0.0427,0.0406,0.0249,0.02,0.0121,0.0093,0.0252,0.0251,0.0251,0,0.0704,0.0743,0.0837,0.0889,0.0921,0.1006,0.1074,0.1128,0.1192,0.1263,0.1309,0.1246,0.1227,0.097,0.0727,0.0485,0.0386,0.0356,0.0338,0.0259,0.018,0.0164,0.0145,0.0364,0.0365,0.0365,0.0366,0,0.0742,0.0772,0.0833,0.0942,0.1021,0.1125,0.122,0.1294,0.1373,0.1449,0.1527,0.1521,0.1292,0.1097,0.0768,0.0585,0.0341,0.0358,0.0268,0.0265,0.0252,0.0205,0.0386,0.037,0.037,0.0369,0.0369,0.0369,0.0768,0.0817,0.0898,0.1002,0.11,0.123,0.1328,0.1441,0.1579,0.1714,0.1695,0.1748,0.1459,0.1031,0.076,0.0364,0.0358,0.026,0.0203,0.019,0.0187,0.0374,0.0332,0.0332,0.0331,0.0331,0.033,0,0.0801,0.0862,0.0955,0.1084,0.1192,0.1245,0.1419,0.1532,0.1711,0.1853,0.1937,0.1896,0.1525,0.112,0.0586,0.029,0.0184,0.0133,0.0124,0.0106,0.0266,0.0297,0.0258,0.0259,0.0259,0.0259,0.0259,0.0259,0.082,0.0908,0.0958,0.1135,0.123,0.1397,0.1506,0.1686,0.1839,0.2069,0.2176,0.2223,0.1994,0.0979,0.0355,0.0186,0.0012,-0.0032,-0.0131,-0.0023,-0.0015,-0.0008,0.0011,-0.0087,-0.0088,-0.0223,-0.0225,-0.0226]}],[{"header":{"parameterUnit":"m.s-1","parameterCategory":2,"la1":30.2991,"la2":30.254,"lo1":-89.0895,"lo2":-89.0444,"dy":0.0017,"dx":0.0017,"nx":28,"ny":28,"refTime":"2024-05-24T03:00:00:Z","depth":"2","parameterNumber":2,"parameterNumberName":"U-component_of_CURRENTS"},"data":[0,0,0,0,0,0,0,0,0,0,0,0,0,0,0,0,0,0,0,0,0,0,0,0,0,0,0,0,0,0,0,0,0,0,0,0,0,0,0,0,0,0,0,0,0,0,0,0,0,0,0,0,0,0,0,0,0,0,0.2614,0.2614,0,0.2618,0.2618,0.2618,0.2609,0.2609,0.2609,0.2609,0.26,0.26,0.26,0,0,0,0,0,0,0,0,0,0,0,0,0,0.2615,0.2615,0.2614,0.2614,0.2615,0.2618,0.2618,0.2618,0.261,0.2609,0.2609,0.2609,0.26,0.26,0.26,0,0,0,0,0,0,0,0,0,0,0,0,0,0.2615,0.2615,0.2614,0.2612,0.2612,0.2618,0.2618,0.2618,0.261,0.2609,0.2609,0.2609,0.26,0.26,0.26,0.2603,0,0,0.2599,0.2599,0,0,0,0,0,0,0,0,0.2615,0.2615,0.2612,0.2612,0.2612,0.2614,0.2615,0.2613,0.261,0.2609,0.2609,0.2609,0.2605,0.2604,0.2603,0.2602,0.2602,0.2599,0.2599,0.2599,0.2599,0,0,0,0,0,0,0,0.2615,0.2615,0.2614,0.2612,0.2612,0.2616,0.2616,0.2615,0.2606,0.2609,0.2609,0.2612,0.2605,0.2604,0.2603,0.2602,0.2599,0.2599,0.2599,0.2599,0.2649,0.265,0,0,0,0,0,0,0.2617,0.2615,0.2614,0.2614,0.2615,0.2616,0.2616,0.2613,0.2607,0.2606,0.2612,0.2611,0.2604,0.2603,0.2603,0.2644,0.2599,0.2599,0.2599,0.2647,0.2649,0.265,0,0,0,0,0,0,0.2617,0.2617,0.2614,0.2616,0.2616,0.2617,0.2613,0.2613,0.2622,0.2609,0.2608,0.2622,0.2604,0.2603,0.2617,0.2642,0.2599,0.2599,0.2645,0.2648,0.265,0.2702,0,0,0,0,0,0,0.2617,0.2616,0.262,0.2616,0.2616,0.2626,0.2614,0.2613,0.2624,0.2623,0.2618,0.2616,0.2604,0.2617,0.2617,0.2641,0.2599,0.2644,0.2646,0.2649,0.2698,0.2705,0.2711,0,0,0,0,0,0.2617,0.2619,0.262,0.262,0.2619,0.2627,0.2628,0.2626,0.2625,0.2633,0.2633,0.2617,0.2634,0.2618,0.2617,0.2642,0.2642,0.2646,0.2649,0.2695,0.2704,0.2711,0,0,0,0,0,0,0.2621,0.2619,0.2619,0.2621,0.263,0.2627,0.2633,0.2636,0.2642,0.2644,0.2631,0.263,0.2654,0.2642,0.2625,0.2666,0.2638,0.2641,0.2673,0.2681,0.2688,0.27,0.2598,0,0,0,0,0,0.2624,0.2625,0.2629,0.2631,0.2637,0.2639,0.2644,0.2646,0.265,0.2652,0.2648,0.2651,0.2665,0.2668,0.2673,0.269,0.2695,0.2708,0.2715,0.272,0.2731,0.277,0.2781,0.2661,0.2661,0.2661,0,0,0.2624,0.2626,0.2625,0.2633,0.2637,0.265,0.2641,0.2654,0.2671,0.2651,0.2669,0.2673,0.2676,0.27,0.2709,0.2693,0.2756,0.2724,0.2729,0.2737,0.2774,0.2786,0.2796,0.2663,0.2663,0.2662,0,0,0.2624,0.2629,0.263,0.2643,0.2658,0.2664,0.2673,0.2679,0.2689,0.2709,0.2707,0.273,0.2735,0.2749,0.2757,0.2805,0.2792,0.2804,0.2844,0.2882,0.2892,0.2901,0.2916,0.2926,0.2805,0.2805,0.2805,0,0.2627,0.2628,0.2634,0.2647,0.266,0.2674,0.2688,0.2704,0.2716,0.2732,0.2722,0.2763,0.2764,0.2808,0.2828,0.2821,0.2831,0.2811,0.2891,0.29,0.2908,0.2921,0.2931,0.2808,0.2808,0.2807,0.2807,0,0.2629,0.2638,0.2643,0.2662,0.2681,0.2697,0.2723,0.2746,0.2761,0.2776,0.2821,0.283,0.2855,0.2864,0.2861,0.2924,0.2908,0.2896,0.2869,0.2923,0.2933,0.2943,0.2812,0.2811,0.281,0.2809,0,0,0.2611,0.2637,0.264,0.2648,0.2692,0.27,0.2749,0.2788,0.2819,0.2844,0.2887,0.2924,0.2934,0.2945,0.2949,0.2984,0.3051,0.2969,0.297,0.2982,0.3123,0.3057,0.3061,0.3053,0.3055,0.3057,0.3104,0,0.261,0.2626,0.2648,0.2671,0.2682,0.2724,0.2764,0.2808,0.2848,0.2894,0.2934,0.2972,0.2964,0.2984,0.3022,0.305,0.308,0.3038,0.3071,0.3072,0.3005,0.3072,0.2817,0.2833,0.3113,0.3115,0.3116,0,0.2601,0.2615,0.2632,0.2669,0.2679,0.2704,0.2772,0.2812,0.2896,0.2928,0.2989,0.3019,0.309,0.3068,0.3147,0.3122,0.3131,0.3143,0.3145,0.3073,0.3025,0.2826,0.284,0.3132,0.3131,0.3129,0.3128,0,0.2567,0.26,0.261,0.2625,0.2675,0.2701,0.274,0.2821,0.2867,0.2961,0.3009,0.3081,0.313,0.3168,0.3205,0.3184,0.3281,0.3249,0.3194,0.3188,0.2973,0.2945,0.3302,0.3302,0.3301,0.3301,0.3301,0,0.2549,0.2555,0.2593,0.2596,0.2623,0.2675,0.2729,0.2781,0.2875,0.2933,0.3024,0.3082,0.3162,0.3226,0.3237,0.3254,0.3307,0.3218,0.3207,0.2982,0.2956,0.3214,0.3203,0.3303,0.3303,0.3302,0.3302,0,0.2505,0.2529,0.2539,0.2586,0.2603,0.2626,0.2715,0.2751,0.2857,0.2942,0.2979,0.3107,0.3187,0.325,0.3317,0.3289,0.3309,0.3294,0.3019,0.2975,0.3178,0.3169,0.3238,0.3236,0.3235,0.3234,0.3233,0,0.2481,0.2479,0.2519,0.2524,0.2544,0.2594,0.2624,0.2726,0.2774,0.2943,0.2971,0.3102,0.3159,0.3245,0.3229,0.3238,0.3293,0.2987,0.2903,0.3195,0.3178,0.3171,0.3165,0.2631,0.2625,0.2621,0.2617,0,0.2436,0.2449,0.2459,0.2474,0.2493,0.2524,0.258,0.2614,0.2739,0.2815,0.2912,0.2981,0.3084,0.2987,0.3015,0.2978,0.2967,0.289,0.3278,0.2694,0.2629,0.261,0.2622,0.2574,0.2578,0.2581,0.2584,0.2585,0.24,0.2394,0.2405,0.2408,0.2428,0.2431,0.2425,0.249,0.2543,0.2617,0.2757,0.2769,0.2803,0.2725,0.2641,0.2572,0.2776,0.2623,0.2635,0.2653,0.2582,0.2519,0.2429,0.2432,0.2435,0.2437,0.2439,0,0.2339,0.2336,0.2336,0.2323,0.2295,0.2345,0.2366,0.2329,0.233,0.2427,0.2484,0.2306,0.2251,0.2281,0.2123,0.2122,0.2076,0.2013,0.1924,0.1969,0.2009,0.1902,0.157,0.1567,0.1564,0.1562,0,0,0.2309,0.2274,0.2262,0.2186,0.2176,0.211,0.2096,0.2053,0.2075,0.2038,0.2023,0.2189,0.2245,0.1897,0.1842,0.1678,0.1808,0.1606,0.2309,0.2252,0.2288,0.2373,0.2262,0,0,0,0,0]},{"header":{"parameterUnit":"m.s-1","parameterCategory":2,"la1":30.2991,"la2":30.254,"lo1":-89.0895,"lo2":-89.0444,"dy":0.0017,"dx":0.0017,"nx":28,"ny":28,"refTime":"2024-05-24T03:00:00:Z","depth":"2","parameterNumber":3,"parameterNumberName":"V-component_of_CURRENTS"},"data":[0,0,0,0,0,0,0,0,0,0,0,0,0,0,0,0,0,0,0,0,0,0,0,0,0,0,0,0,0,0,0,0,0,0,0,0,0,0,0,0,0,0,0,0,0,0,0,0,0,0,0,0,0,0,0,0,0,0,0.0289,0.0289,0,0.0261,0.0261,0.0261,0.0242,0.0242,0.0242,0.0241,0.0197,0.0196,0.0195,0,0,0,0,0,0,0,0,0,0,0,0,0,0.0279,0.0279,0.0289,0.0289,0.0289,0.0261,0.0261,0.0261,0.0242,0.0242,0.0242,0.0241,0.0198,0.0197,0.0195,0,0,0,0,0,0,0,0,0,0,0,0,0,0.027,0.0279,0.0289,0.0276,0.0275,0.0261,0.0261,0.026,0.0242,0.0242,0.0241,0.0241,0.0198,0.0197,0.0195,0.0189,0,0,0.019,0.019,0,0,0,0,0,0,0,0,0.0271,0.0271,0.0279,0.0277,0.0275,0.0255,0.0241,0.0236,0.0242,0.0254,0.0241,0.0241,0.0215,0.0212,0.0208,0.0187,0.0185,0.019,0.0189,0.0188,0.0188,0,0,0,0,0,0,0,0.0271,0.0271,0.0278,0.0278,0.0276,0.0255,0.0254,0.024,0.0236,0.0253,0.0252,0.0249,0.0214,0.0209,0.0206,0.0184,0.019,0.0189,0.0188,0.0187,0.0163,0.0163,0,0,0,0,0,0,0.0278,0.0272,0.0279,0.0277,0.0273,0.0256,0.0255,0.0262,0.0236,0.0232,0.0249,0.0248,0.0212,0.0208,0.0205,0.0214,0.0188,0.0187,0.0186,0.0162,0.0163,0.0163,0,0,0,0,0,0,0.0278,0.0279,0.028,0.0273,0.0272,0.0256,0.0264,0.0261,0.0261,0.0233,0.0229,0.0252,0.0212,0.0207,0.0199,0.0212,0.0186,0.0185,0.0162,0.0162,0.0163,0.0221,0,0,0,0,0,0,0.0278,0.028,0.0286,0.0274,0.0273,0.0283,0.0264,0.0261,0.0259,0.0257,0.0234,0.023,0.0211,0.0202,0.0198,0.0209,0.0184,0.0161,0.0162,0.0163,0.0219,0.0224,0.0228,0,0,0,0,0,0.0278,0.0292,0.0286,0.0287,0.0282,0.0283,0.0281,0.0268,0.0259,0.0266,0.0248,0.0231,0.0202,0.0201,0.0196,0.0207,0.0161,0.0162,0.0163,0.0217,0.0223,0.0228,0,0,0,0,0,0,0.029,0.0291,0.0285,0.0298,0.0294,0.028,0.0282,0.0274,0.0265,0.0263,0.0236,0.023,0.0228,0.0208,0.0207,0.02,0.0178,0.0178,0.0221,0.0227,0.0231,0.025,0.0182,0,0,0,0,0,0.0295,0.0306,0.0301,0.031,0.031,0.0297,0.0294,0.0289,0.0279,0.0275,0.0258,0.0239,0.0226,0.022,0.0204,0.0202,0.0177,0.0204,0.0209,0.0213,0.0224,0.02,0.0203,0.0165,0.0165,0.0165,0,0,0.03,0.0303,0.0308,0.0313,0.0307,0.0318,0.0295,0.03,0.0312,0.0271,0.0279,0.0254,0.0228,0.0227,0.0223,0.0213,0.0208,0.0213,0.0217,0.0226,0.0201,0.0204,0.0208,0.0166,0.0166,0.0166,0,0,0.0321,0.0321,0.0338,0.0341,0.0341,0.0335,0.034,0.0333,0.0333,0.0336,0.0309,0.0294,0.0275,0.0259,0.0249,0.0267,0.0232,0.0259,0.0298,0.0275,0.0278,0.028,0.0244,0.0243,0.0262,0.0262,0.0262,0,0.0326,0.0353,0.0342,0.0361,0.037,0.0348,0.0373,0.0369,0.036,0.0365,0.0347,0.0319,0.0292,0.0293,0.0297,0.0279,0.0255,0.0282,0.0281,0.0283,0.0285,0.0247,0.0245,0.0265,0.0265,0.0264,0.0264,0,0.0364,0.0385,0.0395,0.0415,0.0421,0.0439,0.0435,0.0441,0.0433,0.0426,0.0425,0.0386,0.037,0.0355,0.0332,0.0332,0.0307,0.029,0.0271,0.0293,0.0251,0.0248,0.0269,0.0268,0.0267,0.0266,0,0,0.0381,0.0417,0.0421,0.0447,0.0456,0.047,0.0489,0.0505,0.0526,0.0501,0.0523,0.0485,0.0457,0.0443,0.0406,0.0383,0.0362,0.0346,0.0343,0.0316,0.0301,0.0298,0.0294,0.0346,0.0346,0.0346,0.0264,0,0.0417,0.0472,0.0477,0.0528,0.0558,0.0552,0.0579,0.0586,0.058,0.0592,0.0551,0.0552,0.0493,0.0489,0.0454,0.0394,0.0358,0.0385,0.028,0.0277,0.0277,0.0292,0.0307,0.0237,0.0261,0.026,0.026,0,0.0458,0.0493,0.0552,0.0605,0.0618,0.064,0.068,0.0704,0.0705,0.0704,0.0683,0.0645,0.061,0.0558,0.0457,0.0478,0.0395,0.0338,0.0333,0.0312,0.0269,0.022,0.023,0.0254,0.0255,0.0255,0.0256,0,0.049,0.0548,0.0601,0.0618,0.0667,0.0695,0.0721,0.0736,0.0775,0.0773,0.0794,0.073,0.0718,0.0611,0.0486,0.0472,0.0373,0.0335,0.0249,0.0246,0.023,0.0227,0.0259,0.0259,0.0259,0.026,0.026,0,0.0534,0.0578,0.0623,0.0654,0.0731,0.0743,0.0815,0.0831,0.0865,0.0925,0.0856,0.088,0.0733,0.0656,0.052,0.0385,0.0393,0.0262,0.0232,0.0249,0.0249,0.0243,0.0242,0.0257,0.0257,0.0258,0.0258,0,0.0564,0.0592,0.0662,0.0723,0.0751,0.0805,0.0892,0.0943,0.0965,0.1039,0.1048,0.0998,0.0904,0.0743,0.0576,0.0446,0.0305,0.0248,0.0274,0.0249,0.0177,0.018,0.0139,0.0138,0.0138,0.0137,0.0137,0,0.0584,0.0622,0.0712,0.0763,0.0794,0.0877,0.0944,0.0994,0.1054,0.1118,0.116,0.1097,0.1073,0.0822,0.0587,0.0355,0.0313,0.0202,0.0178,0.0194,0.0168,0.0172,0.0176,0.0163,0.0163,0.0163,0.0163,0,0.0621,0.0651,0.0709,0.0817,0.0893,0.0994,0.1086,0.1154,0.1227,0.1296,0.1364,0.1352,0.1126,0.0906,0.0589,0.042,0.0241,0.0193,0.0208,0.0204,0.0213,0.0189,0.0193,0.0162,0.0162,0.0162,0.0162,0.0162,0.0648,0.0696,0.0775,0.0877,0.0972,0.1096,0.1189,0.1292,0.1419,0.1526,0.1507,0.1495,0.1229,0.0835,0.0546,0.0237,0.0258,0.0132,0.0133,0.0135,0.0164,0.0174,0.0119,0.0119,0.0119,0.0119,0.0119,0,0.0682,0.0741,0.0832,0.0957,0.1061,0.1114,0.1278,0.1372,0.1533,0.1621,0.1682,0.1432,0.1182,0.0865,0.0426,0.0166,0.0129,0.0058,0.0075,0.0079,0.0081,0.0108,0.0048,0.0047,0.0046,0.0045,0,0,0.0701,0.0786,0.0833,0.1004,0.1098,0.1258,0.1361,0.1505,0.1606,0.1703,0.1699,0.1654,0.1286,0.0945,0.0583,0.0324,0.0255,0.0257,0.0345,0.0413,0.0419,0.0158,0.0209,0,0,0,0,0]}],[{"header":{"parameterUnit":"m.s-1","parameterCategory":2,"la1":30.2991,"la2":30.254,"lo1":-89.0895,"lo2":-89.0444,"dy":0.0017,"dx":0.0017,"nx":28,"ny":28,"refTime":"2024-05-24T03:00:00:Z","depth":"4","parameterNumber":2,"parameterNumberName":"U-component_of_CURRENTS"},"data":[0,0,0,0,0,0,0,0,0,0,0,0,0,0,0,0,0,0,0,0,0,0,0,0,0,0,0,0,0,0,0,0,0,0,0,0,0,0,0,0,0,0,0,0,0,0,0,0,0,0,0,0,0,0,0,0,0,0,0.1688,0.1688,0,0.1734,0.1735,0.1735,0.1784,0.1785,0.1786,0.1787,0.1851,0.1852,0.1853,0,0,0,0,0,0,0,0,0,0,0,0,0,0.1642,0.1642,0.1688,0.1688,0.1689,0.1734,0.1735,0.1735,0.1784,0.1785,0.1786,0.1787,0.1851,0.1852,0.1853,0,0,0,0,0,0,0,0,0,0,0,0,0,0.1671,0.1642,0.1688,0.172,0.1724,0.1734,0.1735,0.1735,0.1784,0.1785,0.1786,0.1788,0.185,0.1852,0.1853,0.1836,0,0,0.1857,0.1858,0,0,0,0,0,0,0,0,0.1669,0.1672,0.1715,0.1718,0.1722,0.1756,0.1742,0.1771,0.1784,0.1759,0.1787,0.1788,0.1821,0.1825,0.1828,0.1839,0.1842,0.1857,0.1858,0.1859,0.1859,0,0,0,0,0,0,0,0.1667,0.1671,0.1705,0.1715,0.172,0.1733,0.1738,0.1748,0.1782,0.1762,0.1766,0.1773,0.1823,0.1827,0.183,0.1843,0.1857,0.1859,0.1859,0.186,0.1955,0.1957,0,0,0,0,0,0,0.1663,0.1668,0.1703,0.1706,0.17,0.1733,0.1739,0.1743,0.1781,0.1789,0.1772,0.1775,0.1824,0.1829,0.1833,0.1914,0.1859,0.186,0.1861,0.1954,0.1956,0.1958,0,0,0,0,0,0,0.1662,0.1665,0.1701,0.169,0.1696,0.1732,0.1736,0.1743,0.1785,0.1789,0.1797,0.1812,0.1825,0.1831,0.1877,0.1914,0.1861,0.1862,0.1952,0.1954,0.1957,0.2014,0,0,0,0,0,0,0.166,0.1665,0.1685,0.1689,0.1696,0.173,0.1735,0.1743,0.1786,0.1792,0.1825,0.183,0.1826,0.1875,0.1878,0.1915,0.1863,0.195,0.1953,0.1956,0.201,0.2019,0.2026,0,0,0,0,0,0.1658,0.1673,0.1686,0.1691,0.1717,0.1731,0.1737,0.1765,0.1787,0.1808,0.1837,0.1831,0.1898,0.1877,0.1881,0.1918,0.1948,0.1952,0.1956,0.2007,0.2017,0.2025,0,0,0,0,0,0,0.1666,0.1679,0.1694,0.1714,0.1734,0.1741,0.1768,0.1786,0.1824,0.1844,0.1848,0.1855,0.191,0.1907,0.1884,0.1956,0.1924,0.1928,0.1961,0.1971,0.1978,0.1982,0.1864,0,0,0,0,0,0.1675,0.1693,0.1706,0.1728,0.174,0.1762,0.1781,0.18,0.1824,0.1845,0.1867,0.1895,0.1921,0.1942,0.1959,0.1995,0.1995,0.2024,0.2032,0.2038,0.2045,0.2081,0.2092,0.197,0.197,0.197,0,0,0.1685,0.1697,0.1708,0.1732,0.1752,0.1773,0.1778,0.1815,0.1845,0.1844,0.1904,0.1924,0.1937,0.1982,0.2006,0.1988,0.2072,0.2043,0.2048,0.2051,0.2086,0.2098,0.2108,0.1973,0.1972,0.1972,0,0,0.1697,0.1725,0.174,0.176,0.1796,0.1808,0.1827,0.1856,0.1887,0.1935,0.1948,0.1994,0.203,0.2047,0.2059,0.212,0.2112,0.2133,0.2175,0.221,0.2221,0.2229,0.224,0.2249,0.2136,0.2136,0.2136,0,0.1714,0.1729,0.1749,0.1769,0.1794,0.1828,0.1852,0.1883,0.1928,0.1957,0.1968,0.2044,0.206,0.2111,0.2138,0.2138,0.215,0.2137,0.222,0.2229,0.2237,0.2245,0.2255,0.214,0.2139,0.2139,0.2139,0,0.1723,0.1754,0.1768,0.1804,0.1833,0.1864,0.1901,0.1946,0.1991,0.2018,0.2093,0.2118,0.2164,0.2179,0.2181,0.225,0.2236,0.2225,0.2194,0.2253,0.2258,0.2267,0.2144,0.2143,0.2142,0.2141,0,0,0.171,0.1763,0.1773,0.1796,0.1858,0.1874,0.194,0.1993,0.2041,0.2099,0.2159,0.2216,0.2243,0.2259,0.2271,0.2305,0.2374,0.23,0.23,0.2305,0.2445,0.2284,0.2278,0.2384,0.2386,0.2388,0.2423,0,0.1716,0.1752,0.1785,0.1834,0.1855,0.1915,0.1965,0.2027,0.2087,0.2154,0.2205,0.2268,0.2269,0.2307,0.2344,0.2374,0.2402,0.2365,0.2392,0.2392,0.2238,0.2284,0.2394,0.2429,0.2431,0.2433,0.2434,0,0.1706,0.1735,0.178,0.1844,0.1862,0.1907,0.1999,0.2051,0.2151,0.2201,0.2278,0.232,0.2399,0.2385,0.2463,0.2445,0.2455,0.2464,0.2466,0.2301,0.2247,0.2361,0.245,0.2448,0.2447,0.2446,0.2445,0,0.1663,0.1729,0.1767,0.179,0.187,0.1919,0.1977,0.2075,0.213,0.2247,0.2304,0.2386,0.2449,0.2485,0.2522,0.2507,0.2589,0.2562,0.2419,0.2408,0.2516,0.2506,0.2608,0.2608,0.2608,0.2608,0.2607,0,0.1633,0.1667,0.1757,0.1775,0.1835,0.1906,0.1989,0.2057,0.2167,0.2228,0.2334,0.2384,0.2484,0.254,0.2549,0.251,0.2613,0.243,0.2409,0.2538,0.2531,0.2522,0.2511,0.2609,0.2609,0.2608,0.2608,0,0.1572,0.1631,0.1678,0.1776,0.1815,0.1864,0.1993,0.2038,0.2162,0.225,0.2296,0.2417,0.2479,0.2545,0.2604,0.2528,0.2516,0.2475,0.2611,0.2597,0.2301,0.2293,0.2304,0.2299,0.2294,0.229,0.2287,0,0.1537,0.1557,0.167,0.1703,0.1756,0.1846,0.1896,0.2025,0.2071,0.224,0.2258,0.238,0.2441,0.2391,0.2471,0.2465,0.2436,0.2405,0.2344,0.2293,0.2272,0.2272,0.2271,0.228,0.2279,0.2278,0.2277,0,0.147,0.1529,0.157,0.1642,0.1704,0.1759,0.1846,0.1867,0.2005,0.2139,0.2164,0.2193,0.2254,0.2281,0.2301,0.2292,0.241,0.2357,0.2365,0.2307,0.2264,0.2248,0.2252,0.2261,0.2263,0.2265,0.2266,0,0.1429,0.1442,0.1508,0.1554,0.1627,0.164,0.1703,0.1745,0.1807,0.1981,0.1984,0.2108,0.2228,0.2192,0.221,0.2192,0.2147,0.2059,0.2082,0.21,0.2017,0.193,0.1809,0,0,0,0,0,0.1374,0.1371,0.1409,0.1443,0.1509,0.155,0.1645,0.1707,0.1842,0.1804,0.1887,0.1929,0.1951,0.2012,0.1951,0.212,0.2161,0.2037,0.2073,0.2174,0.2192,0.2113,0,0,0,0,0,0,0.1333,0.1367,0.1369,0.134,0.1343,0.1395,0.145,0.1542,0.1525,0.1673,0.1693,0.1805,0.1857,0.1968,0.1913,0.1931,0.1909,0.2116,0.2111,0.2164,0.2181,0.2195,0.2119,0,0,0,0,0]},{"header":{"parameterUnit":"m.s-1","parameterCategory":2,"la1":30.2991,"la2":30.254,"lo1":-89.0895,"lo2":-89.0444,"dy":0.0017,"dx":0.0017,"nx":28,"ny":28,"refTime":"2024-05-24T03:00:00:Z","depth":"4","parameterNumber":3,"parameterNumberName":"V-component_of_CURRENTS"},"data":[0,0,0,0,0,0,0,0,0,0,0,0,0,0,0,0,0,0,0,0,0,0,0,0,0,0,0,0,0,0,0,0,0,0,0,0,0,0,0,0,0,0,0,0,0,0,0,0,0,0,0,0,0,0,0,0,0,0,0.0144,0.0144,0,0.0126,0.0126,0.0126,0.0115,0.0115,0.0115,0.0115,0.0084,0.0083,0.0083,0,0,0,0,0,0,0,0,0,0,0,0,0,0.0135,0.0136,0.0144,0.0144,0.0143,0.0126,0.0126,0.0126,0.0115,0.0115,0.0115,0.0115,0.0084,0.0083,0.0083,0,0,0,0,0,0,0,0,0,0,0,0,0,0.0131,0.0136,0.0144,0.0136,0.0135,0.0126,0.0126,0.0126,0.0115,0.0115,0.0115,0.0115,0.0085,0.0084,0.0082,0.0077,0,0,0.0079,0.0078,0,0,0,0,0,0,0,0,0.0131,0.0131,0.0137,0.0137,0.0136,0.0123,0.0112,0.0109,0.0115,0.0123,0.0115,0.0115,0.0096,0.0094,0.0091,0.0075,0.0074,0.0079,0.0078,0.0078,0.0077,0,0,0,0,0,0,0,0.0131,0.0132,0.0137,0.0137,0.0136,0.0122,0.0122,0.0111,0.011,0.0122,0.0122,0.0119,0.0095,0.0092,0.009,0.0074,0.0079,0.0078,0.0077,0.0077,0.0063,0.0063,0,0,0,0,0,0,0.0135,0.0132,0.0137,0.0136,0.0133,0.0122,0.0122,0.0127,0.011,0.0108,0.0119,0.0119,0.0094,0.0091,0.0089,0.01,0.0078,0.0076,0.0076,0.0062,0.0063,0.0063,0,0,0,0,0,0,0.0135,0.0136,0.0138,0.0133,0.0132,0.0123,0.0129,0.0127,0.0129,0.0108,0.0105,0.0124,0.0094,0.0091,0.0087,0.0098,0.0076,0.0075,0.0062,0.0062,0.0063,0.011,0,0,0,0,0,0,0.0135,0.0137,0.0142,0.0134,0.0133,0.0142,0.0129,0.0126,0.0127,0.0127,0.0111,0.0108,0.0094,0.0089,0.0086,0.0096,0.0074,0.0061,0.0062,0.0063,0.0108,0.0112,0.0115,0,0,0,0,0,0.0135,0.0146,0.0143,0.0143,0.0141,0.0142,0.0141,0.0133,0.0128,0.0134,0.0122,0.0109,0.009,0.0088,0.0085,0.0095,0.0061,0.0062,0.0063,0.0106,0.0111,0.0115,0,0,0,0,0,0,0.0145,0.0145,0.0142,0.0152,0.015,0.0141,0.0143,0.0138,0.0134,0.0133,0.0113,0.011,0.011,0.0095,0.0093,0.0091,0.0073,0.0073,0.0107,0.0112,0.0115,0.0129,0.0073,0,0,0,0,0,0.0149,0.0158,0.0154,0.0162,0.0163,0.0154,0.0153,0.0151,0.0144,0.0142,0.0131,0.0118,0.0109,0.0105,0.0095,0.0095,0.0074,0.0097,0.0101,0.0105,0.0113,0.009,0.0093,0.0065,0.0065,0.0065,0,0,0.0154,0.0156,0.016,0.0165,0.0161,0.0171,0.0154,0.0159,0.017,0.0139,0.0149,0.0131,0.0112,0.0113,0.0112,0.0103,0.0101,0.0105,0.0109,0.0115,0.0091,0.0094,0.0096,0.0066,0.0066,0.0066,0,0,0.017,0.0171,0.0184,0.0188,0.019,0.0186,0.019,0.0186,0.0189,0.0194,0.0174,0.0164,0.0152,0.014,0.0133,0.0149,0.0121,0.0145,0.0176,0.0154,0.0156,0.0158,0.0132,0.0131,0.0147,0.0147,0.0147,0,0.0175,0.0196,0.0188,0.0203,0.0212,0.0196,0.0216,0.0215,0.0212,0.0217,0.0205,0.0187,0.0167,0.0168,0.0172,0.0159,0.014,0.0162,0.0159,0.016,0.0161,0.0135,0.0133,0.0149,0.0149,0.0149,0.0149,0,0.0203,0.022,0.0229,0.0246,0.0252,0.0267,0.0267,0.0274,0.0271,0.0267,0.0269,0.024,0.0231,0.0219,0.0201,0.02,0.0183,0.0167,0.015,0.0167,0.0138,0.0135,0.0153,0.0152,0.0151,0.0151,0,0,0.0213,0.0244,0.0248,0.027,0.028,0.0292,0.031,0.0325,0.0343,0.0328,0.0347,0.0319,0.0299,0.0289,0.0261,0.0239,0.0222,0.021,0.0208,0.0188,0.0172,0.0161,0.0157,0.0207,0.0206,0.0206,0.0148,0,0.024,0.0284,0.029,0.0333,0.0356,0.0356,0.0381,0.039,0.0387,0.0399,0.0369,0.0373,0.0328,0.0327,0.0297,0.0246,0.0219,0.024,0.0156,0.0153,0.0144,0.0155,0.0206,0.0146,0.0145,0.0145,0.0144,0,0.0268,0.0297,0.0346,0.0393,0.0404,0.0426,0.0462,0.0484,0.0489,0.0489,0.0475,0.0447,0.042,0.038,0.0297,0.0313,0.0249,0.0201,0.0198,0.0171,0.0137,0.0125,0.0139,0.014,0.014,0.014,0.0141,0,0.0288,0.0338,0.0382,0.0397,0.0442,0.0468,0.0495,0.0511,0.0546,0.0548,0.0565,0.0515,0.0508,0.042,0.0319,0.0309,0.0224,0.0196,0.0122,0.012,0.0126,0.0125,0.0135,0.0135,0.0135,0.0135,0.0135,0,0.0316,0.0353,0.0398,0.0424,0.0491,0.0507,0.0571,0.0588,0.062,0.0668,0.0618,0.0633,0.0519,0.0454,0.0345,0.0231,0.024,0.0132,0.0108,0.0146,0.0148,0.0124,0.0123,0.0133,0.0134,0.0134,0.0134,0,0.0329,0.0358,0.0416,0.0475,0.0504,0.0552,0.0635,0.0678,0.0703,0.0761,0.0771,0.0729,0.0647,0.052,0.0381,0.0279,0.0161,0.0115,0.0172,0.015,0.0061,0.0064,0.0026,0.0025,0.0025,0.0024,0.0024,0,0.0339,0.037,0.0455,0.0501,0.0532,0.0609,0.067,0.072,0.0766,0.0819,0.0848,0.0797,0.0748,0.055,0.0402,0.0194,0.0157,0.0085,0.0064,0.0072,0.0052,0.0055,0.0059,0.0022,0.0022,0.0022,0.0022,0,0.0357,0.0388,0.0438,0.0534,0.0606,0.0693,0.0775,0.0817,0.0882,0.0904,0.0917,0.0823,0.0731,0.056,0.0405,0.0251,0.0126,0.0077,0.0077,0.0057,0.0067,0.0048,0.0053,0.002,0.002,0.002,0.002,0,0.0372,0.0409,0.0479,0.0565,0.0658,0.075,0.0795,0.0857,0.0911,0.0959,0.096,0.0865,0.081,0.059,0.0445,0.0297,0.0244,0.0173,0.0166,0.0167,0.0218,0.0252,0.0247,0,0,0,0,0,0.0385,0.0431,0.0506,0.0604,0.0695,0.0755,0.0856,0.0893,0.0952,0.0968,0.0968,0.0883,0.0688,0.0603,0.0453,0.0408,0.0203,0.0222,0.0114,0.0006,0.0009,0.0043,0,0,0,0,0,0,0.0394,0.0462,0.0503,0.062,0.069,0.0799,0.0867,0.091,0.0915,0.0949,0.0849,0.082,0.0627,0.0774,0.0443,0.04,0.0303,0.0138,0.0134,0.0005,0.0007,0.001,0.0045,0,0,0,0,0]}]]